Location: Fort Frances
(48.6170°N, 93.4170°W)
Time: 18:04:08
(UTC-05:00)

Daily predictions for brighter satellites

Satellite Brightness Start Highest point End
(mag) Time Altitude Azimuth Time Altitude Azimuth Time Altitude Azimuth
Gbstr 26 Del rocket 3.9 21:28:06 10° WNW 21:33:50 62° N 21:38:25 10° E
Nadezhda 3 Rocket 4.1 21:28:05 10° N 21:34:28 72° E 21:40:49 10° SSE
Meteor 1-27 Rocket 3.7 21:30:14 10° N 21:35:51 83° ENE 21:41:23 10° SSE
OPS 6432 4.3 21:34:49 10° SW 21:38:05 85° NW 21:41:14 10° NE
NOSS 2-2 (C) 3.8 21:35:22 10° SW 21:39:36 81° NW 21:44:45 10° NE
Sich 1 Rocket 3.7 21:36:21 10° S 21:40:56 79° E 21:45:32 10° NNE
Cosmos 1892 4.1 21:38:20 10° SSW 21:42:00 43° WNW 21:45:44 10° N
Cosmos 1782 3.8 21:39:32 10° NNW 21:43:27 50° W 21:47:21 10° S
BREEZE-M DEB (TANK) 4.2 21:25:52 10° WNW 21:43:54 70° SSW 21:48:16 10° SE
Cosmos 1782 Rocket 4.1 21:40:16 10° SSE 21:44:27 42° E 21:48:41 10° NNE
COSMOS 2487 2.5 21:44:37 10° NNW 21:48:16 89° ENE 21:51:53 10° SSE
BREEZE-M DEB (TANK) 1.0 21:46:23 10° WSW 21:48:26 69° SSE 21:50:59 10° ENE
MetOp-B 4.2 21:47:16 10° SSE 21:52:36 74° ENE 21:57:58 10° NNW
Envisat 3.3 21:48:18 10° S 21:53:21 70° WSW 21:58:28 10° NNW
Coronas F rocket 4.3 21:51:30 10° WSW 21:53:31 19° WNW 21:55:34 10° NNW
DNEPR-1 R/B 4.0 21:48:16 10° NW 21:54:02 87° NE 21:58:32 11° SE
Cosmos 1975 Rocket 3.0 21:51:22 10° N 21:55:41 70° ENE 22:00:00 10° SSE
Cosmos 1939 Rocket 3.9 21:55:56 10° S 21:59:40 44° W 22:03:28 10° NNW
Cosmos 2341 Rocket 4.0 21:57:15 10° S 22:03:31 75° E 22:09:47 10° NNE
Cosmos 614 Rocket 4.1 21:59:01 10° NNW 22:04:06 65° ENE 22:08:37 13° SE
Cosmos 1420 Rocket 4.3 21:59:33 10° S 22:04:32 46° ESE 22:09:31 10° NNE
Cosmos 1378 Rocket 4.1 22:03:22 10° NNW 22:07:37 59° W 22:11:51 10° S
Cosmos 2084 3.1 22:04:42 10° SSW 22:08:30 60° SE 22:12:17 10° NE
Cosmos 1908 Rocket 3.9 22:04:52 10° SSW 22:09:15 69° W 22:13:43 10° N
Elektron 3 4.4 22:07:30 10° NW 22:10:17 48° SW 22:13:13 14° SSE
ARGOS 3.2 22:05:13 11° SSE 22:10:20 66° ENE 22:15:40 10° N
ERS-1 Rocket 4.5 22:06:23 10° SSW 22:10:57 34° W 22:15:33 10° NNW
deb Chang Zheng 4 4.0 22:07:43 10° N 22:12:08 69° WNW 22:16:32 10° SSW
Timation 2 Rocket 3.9 22:07:53 10° NNW 22:13:56 81° WSW 22:19:21 13° SSE
Cosmos 1140 Rocket 3.6 22:09:03 10° NNW 22:14:12 73° WSW 22:19:08 11° SSE
SL-8 Rocket 4.1 22:11:17 10° S 22:17:24 58° E 22:23:30 10° NNE
H-2A R/B 2.7 22:13:15 14° SE 22:17:31 42° ENE 22:22:29 10° N
NOSS 5 (C) 4.2 22:18:10 10° SW 22:21:24 88° NW 22:24:32 10° NE
Cosmos 1242 Rocket 2.7 22:17:45 10° NNW 22:21:25 73° W 22:24:43 13° S
YAOGAN 6 2.9 22:18:38 11° S 22:22:01 62° W 22:25:32 10° NNW
Cosmos 1452 Rocket 3.8 22:17:38 10° SSW 22:22:54 73° WNW 22:28:12 10° NNE
Cosmos 1408 3.2 22:20:44 10° SSW 22:24:20 57° WNW 22:27:56 10° N
USA 234 4.2 22:19:38 10° ENE 22:24:33 22° SE 22:29:25 10° S
USA 245 3.3 22:21:41 14° S 22:24:33 80° WSW 22:28:53 10° NNW
CZ-4B R/B 3.5 22:21:08 10° NNE 22:26:05 60° ESE 22:30:51 10° S
CZ-4 SHROUD 4.2 22:23:22 10° S 22:26:20 42° W 22:29:19 10° NNW
Cosmos 1825 3.0 22:25:25 10° SSW 22:29:08 51° WNW 22:32:54 10° N
Cosmos 1833 Rocket 2.8 22:23:52 10° NNW 22:29:30 70° ENE 22:33:42 18° SE
BREEZE-M DEB 4.3 22:26:35 10° SW 22:30:26 52° SSE 22:32:42 13° E
SPOT 1/Viking Rocket 3.7 22:28:02 12° S 22:32:54 74° WSW 22:38:09 10° NNW
Cosmos 2278 Rocket 2.3 22:29:08 10° SSW 22:34:49 83° WNW 22:40:33 10° NNE
Cosmos 2151 Rocket 3.8 22:33:24 16° SSE 22:36:51 54° E 22:41:17 10° NNE
Cosmos 1184 Rocket 3.9 22:34:26 10° SSW 22:37:39 45° WNW 22:40:55 10° N
Cosmos 1844 Rocket 4.0 22:32:33 10° SW 22:37:57 44° NW 22:43:21 10° NNE
H-2A R/B 4.1 22:34:52 10° SSW 22:38:20 24° W 22:41:46 10° NW
Meteor 1-18 Rocket 4.4 22:33:24 10° N 22:39:19 70° ENE 22:43:43 19° SSE
Landsat 7 3.8 22:36:06 19° SSE 22:39:30 72° ENE 22:44:17 10° N
SL-8 R/B 3.7 22:39:29 10° W 22:44:20 88° S 22:49:10 10° E
Meteor 1-14 Rocket 4.2 22:41:41 10° S 22:47:22 83° E 22:52:58 10° NNE
Cosmos 864 Rocket 4.5 22:42:35 14° S 22:47:57 67° E 22:54:06 10° NNE
IGS 5A 3.7 22:47:10 25° SE 22:49:25 55° ENE 22:53:31 10° N
Cosmos 1812 3.0 22:45:51 10° N 22:49:40 54° ENE 22:51:28 28° SE
Cosmos 2082 Rocket 2.4 22:45:14 10° NNW 22:50:56 70° WSW 22:54:52 20° SSE
ISS -3.4 22:48:02 10° SW 22:51:15 65° SSE 22:54:30 10° ENE
Terra 1.8 22:52:21 24° SSE 22:55:14 72° ENE 23:00:00 10° N
SAR-Lupe-2 4.2 22:54:24 28° ESE 22:55:47 42° ENE 22:59:11 10° N
Intercosmos 25 3.9 22:52:53 10° SSW 22:56:12 45° WNW 22:59:18 10° N
Cosmos 1300 Rocket 4.3 22:55:01 26° SE 22:56:49 38° E 23:00:57 10° NNE
Cosmos 2366 rocket 4.0 22:51:58 12° S 22:57:51 83° E 23:04:14 10° N
SL-08 RB Rocket 4.3 22:55:26 17° S 22:58:54 55° W 23:03:29 10° NNW
Okean 1 Rocket 3.9 22:58:10 26° SE 22:59:48 35° E 23:03:53 10° NNE
Okean 1-7 Rocket 3.9 23:00:46 10° N 23:05:12 51° ENE 23:07:07 30° SE
Spot 4 3.9 23:03:33 27° SSE 23:06:12 70° ENE 23:11:03 10° N
Cosmos 2297 3.8 23:04:16 10° SSW 23:09:59 84° WNW 23:15:46 10° NNE
DMSP B5D2-2 4.1 23:07:06 10° NNE 23:12:19 64° ESE 23:15:24 25° S
USA 229 DEB 4.1 23:05:29 10° NW 23:12:25 59° WSW 23:16:52 24° SSE
USA 229 4.1 23:05:34 10° NW 23:12:31 59° WSW 23:16:58 24° SSE
Meteor 1-11 Rocket 4.5 23:12:12 26° SE 23:14:40 38° E 23:19:56 10° NNE
Iridium 4 Rocket 4.5 23:09:41 10° N 23:15:12 41° E 23:17:58 26° SE
Lacrosse 5 3.3 23:17:36 21° ESE 23:17:36 21° ESE 23:20:21 10° ENE
Gbstr 26 Del rocket 3.0 23:15:55 10° WNW 23:21:01 73° SSW 23:22:46 35° SE
CZ-4C R/B 4.2 23:19:47 23° SSW 23:21:50 44° W 23:25:50 10° NNW
Spot 2 4.3 23:18:10 10° NNE 23:22:28 51° E 23:23:41 38° SSE
ASTEX 1 3.4 23:17:38 10° N 23:22:35 66° E 23:24:51 32° SSE
AVUM R/B 4.3 23:21:21 10° NW 23:24:41 40° WSW 23:25:32 33° SSW
Cosmos 1331 Rocket 4.0 23:22:09 27° S 23:24:54 63° ESE 23:30:00 10° NNE
NOSS 8 (E) 4.4 23:25:56 36° SSW 23:27:14 70° SE 23:31:08 10° NE
BREEZE-M DEB (TANK) 4.1 23:23:37 10° W 23:27:23 82° N 23:40:40 10° E
Cosmos 1000 Rocket 4.5 23:23:35 10° N 23:29:51 75° E 23:33:09 30° SSE
NOSS 3-1 (A) 4.1 23:23:27 10° NW 23:30:49 74° NE 23:36:14 23° SE
CZ-4B R/B 3.9 23:31:00 11° ENE 23:31:33 11° ENE 23:32:27 10° NE
Cosmos 1110 Rocket 3.9 23:28:13 22° SSW 23:31:35 80° ESE 23:36:50 10° NNE
Timation 1 Rocket 4.3 23:27:35 16° SSW 23:32:26 75° ESE 23:38:27 10° NNE
Cosmos 1400 Rocket 3.5 23:35:35 37° ESE 23:36:06 39° E 23:39:59 10° NNE
Cosmos 1536 3.6 23:36:20 33° ESE 23:36:41 34° E 23:40:19 10° NNE
CARTOSAT-1 4.4 23:35:50 25° SSW 23:37:52 42° W 23:42:00 10° NNW
Cosmos 2369 Rocket 3.1 23:42:12 28° ESE 23:43:04 29° ESE 23:47:52 10° NE
Meteor 1-19 Rocket 4.3 23:37:18 10° N 23:43:12 78° ENE 23:45:47 35° SSE
H-2A R/B 4.4 23:44:43 10° NE 23:47:54 18° E 23:48:06 18° E
ATLAS 2AS CENTAUR R/B 3.7 23:43:56 10° NW 23:51:54 51° NE 23:58:44 13° ESE
Cosmos 1354 Rocket 4.0 23:47:01 10° NNW 23:52:19 77° ENE 23:54:16 40° SE
Cosmos 1486 Rocket 4.3 23:48:08 10° NNW 23:53:24 60° WSW 23:55:27 35° S
Cosmos 1356 3.4 23:54:13 69° ESE 23:54:20 69° E 23:57:52 10° NNE
